Location: Alderney
(49.7170°N, 2.2000°W)
Time: 06:26:27
(UTC+01:00)

Amateur Radio Satellites - All Passes

Search period start: 19 October 2017 05:56
Search period end: 20 October 2017 05:56
Location: Alderney, 49.7170°N, 2.2000°W

Satellite Date Start Highest point End Downlink Frequencies (MHz)
Time Altitude Azimuth
KKS-1 19 Oct 05:58:51 06:02:59 38° 262° (W) 06:07:10 437.445
CUBESAT XI-V 19 Oct 06:04:18 06:06:46 14° 273° (W) 06:09:14 437.345
NO-84 19 Oct 06:09:03 06:13:19 66° 337° (NNW) 06:17:24 435.350 FM
CUTE-I 19 Oct 06:09:31 06:12:20 14° 86° (E) 06:15:09 437.470
STRAND 1 19 Oct 06:09:46 06:13:24 20° 57° (ENE) 06:17:02 437.568
XW-2F 19 Oct 06:34:16 06:37:07 20° 93° (E) 06:39:55 145.980 - 146.000
LilacSat-2 19 Oct 06:35:27 06:38:33 24° 94° (E) 06:41:38 437.200
KAITUO 1B 19 Oct 06:35:51 06:38:19 17° 91° (E) 06:40:46 145.475/437.950
STARS 19 Oct 06:36:45 06:40:49 36° 263° (W) 06:44:55 437.465
XW-2D 19 Oct 06:44:53 06:48:11 28° 95° (E) 06:51:28 145.860 - 145.880
NUDT-PHONESAT 19 Oct 06:52:37 06:55:39 24° 94° (E) 06:58:41 437.300
XW-2B 19 Oct 06:58:07 07:01:39 38° 98° (E) 07:05:10 145.730 - 145.750
HO-68 19 Oct 07:03:53 07:09:05 21° 88° (E) 07:14:16 435.675
FO-29 19 Oct 07:05:32 07:07:58 13° 47° (NE) 07:10:29 435.910
SO-50 19 Oct 07:12:07 07:15:23 20° 114° (ESE) 07:18:39 436.795
AO-7 19 Oct 07:12:32 07:19:14 29° 313° (NW) 07:25:57 .
O/OREOS (USA 219) 19 Oct 07:18:35 07:23:11 67° 247° (WSW) 07:27:44 437.305
XW-2C 19 Oct 07:21:08 07:24:54 72° 102° (ESE) 07:28:37 145.795 - 145.815
DOVE 4 19 Oct 07:21:25 07:25:54 39° 292° (WNW) 07:30:37 437.250
RS-15 19 Oct 07:28:03 07:39:35 43° 16° (NNE) 07:50:35 29.354- 29.394
CUTE 1.7 + AOD 2 19 Oct 07:31:57 07:35:19 23° 92° (E) 07:38:40 437.475
SEEDS 19 Oct 07:42:44 07:45:44 19° 91° (E) 07:48:42 437.485
STRAND 1 19 Oct 07:46:53 07:52:01 76° 256° (WSW) 07:57:12 437.568
NO-84 19 Oct 07:47:17 07:51:12 38° 357° (N) 07:54:54 435.350 FM
CUTE-I 19 Oct 07:47:46 07:53:11 86° 106° (ESE) 07:58:35 437.470
PCSat 19 Oct 07:57:18 07:59:23 12° 102° (ESE) 08:01:28 145.827
XW-2F 19 Oct 08:07:54 08:11:21 36° 291° (WNW) 08:14:47 145.980 - 146.000
KAITUO 1B 19 Oct 08:09:00 08:12:32 43° 289° (WNW) 08:16:02 145.475/437.950
LilacSat-2 19 Oct 08:09:29 08:12:52 32° 292° (WNW) 08:16:13 437.200
AAUSAT CUBESAT 2 19 Oct 08:11:59 08:14:48 18° 90° (E) 08:17:36 437.432
CUBEBUG 2 19 Oct 08:14:02 08:18:26 38° 96° (E) 08:22:42 437.445
AO-73 19 Oct 08:17:48 08:19:42 12° 86° (E) 08:21:35 145.935
XW-2D 19 Oct 08:19:08 08:22:18 26° 294° (WNW) 08:25:27 145.860 - 145.880
NUDT-PHONESAT 19 Oct 08:26:19 08:29:32 29° 292° (WNW) 08:32:45 437.300
XW-2B 19 Oct 08:32:47 08:35:38 21° 296° (WNW) 08:38:27 145.730 - 145.750
YUBILEINY 19 Oct 08:36:59 08:43:07 22° 75° (ENE) 08:49:16 435.215
ZACube-1 19 Oct 08:37:38 08:41:05 22° 91° (E) 08:44:27 437.345
FO-29 19 Oct 08:46:42 08:51:53 65° 70° (ENE) 08:57:32 435.910
HO-68 19 Oct 08:50:31 08:57:46 90° 297° (WNW) 09:05:00 435.675
SO-50 19 Oct 08:50:56 08:55:24 67° 314° (NW) 08:59:55 436.795
XW-2A 19 Oct 08:52:15 08:55:35 58° 101° (ESE) 08:58:52 145.665 - 145.685
UWE-3 19 Oct 08:55:38 09:00:10 56° 100° (E) 09:04:32 435.000/436.395/437.385
XW-2C 19 Oct 08:56:52 08:58:33 13° 301° (WNW) 09:00:14 145.795 - 145.815
UNISAT 6 19 Oct 08:57:26 09:01:13 25° 62° (ENE) 09:05:02 437.425
PRISM 19 Oct 08:59:48 09:01:16 12° 56° (NE) 09:02:44 437.425
CUTE 1.7 + AOD 2 19 Oct 09:07:22 09:11:19 41° 291° (WNW) 09:15:15 437.475
AO-7 19 Oct 09:07:35 09:09:17 11° 339° (NNW) 09:10:58 .
TIGRISAT 19 Oct 09:12:21 09:16:25 31° 65° (ENE) 09:20:32 435.000
Oscar 11 19 Oct 09:17:03 09:20:57 32° 95° (E) 09:24:49 .
SEEDS 19 Oct 09:17:40 09:21:41 49° 289° (WNW) 09:25:42 437.485
NO-84 19 Oct 09:25:11 09:29:09 53° 18° (NNE) 09:32:49 435.350 FM
CUTE-I 19 Oct 09:28:57 09:32:35 19° 305° (NW) 09:36:14 437.470
STRAND 1 19 Oct 09:30:18 09:32:05 12° 275° (W) 09:33:53 437.568
PCSat 19 Oct 09:36:25 09:41:48 70° 121° (ESE) 09:47:14 145.827
RS-15 19 Oct 09:41:54 09:54:06 80° 47° (NE) 10:05:34 29.354- 29.394
AAUSAT CUBESAT 2 19 Oct 09:46:32 09:50:33 52° 288° (WNW) 09:54:33 437.432
CUBEBUG 2 19 Oct 09:50:49 09:54:55 30° 295° (WNW) 09:58:55 437.445
AO-73 19 Oct 09:52:08 09:56:34 81° 285° (WNW) 10:00:52 145.935
DELFI C3 19 Oct 09:55:03 09:57:54 19° 92° (E) 10:00:45 145.870
ZACube-1 19 Oct 10:13:21 10:17:37 46° 290° (WNW) 10:21:45 437.345
XW-2A 19 Oct 10:26:26 10:27:51 12° 299° (WNW) 10:29:16 145.665 - 145.685
YUBILEINY 19 Oct 10:29:58 10:38:40 87° 96° (E) 10:47:28 435.215
PRISM 19 Oct 10:31:49 10:35:52 86° 72° (ENE) 10:39:57 437.425
UWE-3 19 Oct 10:32:49 10:36:13 21° 299° (WNW) 10:39:32 435.000/436.395/437.385
UNISAT 6 19 Oct 10:33:09 10:37:39 49° 261° (W) 10:42:15 437.425
SO-50 19 Oct 10:33:23 10:36:40 19° 335° (NNW) 10:39:59 436.795
FO-29 19 Oct 10:33:48 10:37:40 20° 272° (W) 10:41:45 435.910
HO-68 19 Oct 10:39:08 10:44:41 25° 310° (NW) 10:50:13 435.675
QB50P2 19 Oct 10:39:37 10:42:10 16° 59° (ENE) 10:44:45 145.880/145.840
ISS 19 Oct 10:41:30 10:42:34 11° 136° (SE) 10:43:38 437.550
NANOSAT C BR1 19 Oct 10:44:45 10:47:05 15° 58° (ENE) 10:49:25 145.865
AIST 2D 19 Oct 10:47:39 10:50:43 29° 68° (ENE) 10:53:49 435.315
TIGRISAT 19 Oct 10:48:38 10:52:58 38° 263° (W) 10:57:24 435.000
Oscar 11 19 Oct 10:53:16 10:57:03 30° 294° (WNW) 11:00:49 .
DUCHIFAT 1 19 Oct 10:56:00 10:58:39 16° 59° (ENE) 11:01:18 145.980
EO-88 19 Oct 11:02:07 11:05:40 51° 100° (E) 11:09:12 145.990 - 145.960
NO-84 19 Oct 11:02:50 11:06:31 42° 219° (SW) 11:09:54 435.350 FM
Max Valier Satellite 19 Oct 11:08:17 11:11:59 84° 103° (ESE) 11:15:39 145.860
PCSat 19 Oct 11:20:57 11:25:41 29° 323° (NW) 11:30:26 145.827
DELFI C3 19 Oct 11:29:06 11:32:53 45° 290° (WNW) 11:36:39 145.870
AO-73 19 Oct 11:30:15 11:32:02 12° 305° (NW) 11:33:49 145.935
nSIGHT-1 19 Oct 11:46:30 11:49:27 36° 149° (SSE) 11:52:27 .
EO-79 19 Oct 11:48:45 11:52:57 59° 72° (ENE) 11:57:11 145.935-145.965
Oscar 19 19 Oct 11:50:04 11:52:26 13° 51° (NE) 11:54:49 437.125/150
POLYITAN 1 19 Oct 11:53:00 11:57:15 65° 72° (ENE) 12:01:31 437.675
RS-15 19 Oct 11:55:08 12:05:32 38° 253° (WSW) 12:15:29 29.354- 29.394
LO-87 19 Oct 11:56:44 12:00:01 31° 96° (E) 12:03:17 145.935 - 145.965
Gurwin Techsat 1B 19 Oct 12:09:09 12:11:54 14° 52° (NE) 12:14:41 435.225
PRISM 19 Oct 12:10:58 12:11:45 10° 273° (W) 12:12:32 437.425
QB50P2 19 Oct 12:13:10 12:17:27 73° 258° (WSW) 12:21:45 145.880/145.840
ISS 19 Oct 12:15:16 12:18:27 52° 153° (SSE) 12:21:38 437.550
M-CUBED/EXP-1 PRIME 19 Oct 12:16:13 12:18:16 16° 56° (ENE) 12:20:18 437.505
SO-50 19 Oct 12:16:53 12:18:51 12° 0° (N) 12:20:50 436.795
NANOSAT C BR1 19 Oct 12:17:57 12:22:13 80° 256° (WSW) 12:26:31 145.865
AIST 2D 19 Oct 12:21:06 12:23:55 22° 266° (W) 12:26:45 435.315
BEESAT 3 19 Oct 12:23:49 12:26:23 17° 113° (ESE) 12:28:58 437.485
DUCHIFAT 1 19 Oct 12:29:35 12:33:49 69° 257° (WSW) 12:38:06 145.980
YUBILEINY 19 Oct 12:29:43 12:36:44 26° 302° (WNW) 12:43:49 435.215
EO-88 19 Oct 12:36:44 12:38:58 16° 298° (WNW) 12:41:09 145.990 - 145.960
VELOX 1 19 Oct 12:38:01 12:39:57 13° 87° (E) 12:41:52 145.980
ESTCUBE 1 19 Oct 12:40:12 12:44:40 63° 101° (ESE) 12:49:06 437.505/2401.250
AO-7 19 Oct 12:42:44 12:47:31 17° 34° (NE) 12:52:17 .
BUGSAT 1 19 Oct 12:43:16 12:47:19 48° 70° (ENE) 12:51:26 437.445
Max Valier Satellite 19 Oct 12:44:14 12:45:12 11° 302° (WNW) 12:46:11 145.860
PCSat 19 Oct 13:08:12 13:10:54 14° 348° (NNW) 13:13:37 145.827
nSIGHT-1 19 Oct 13:22:26 13:25:38 71° 349° (NNW) 13:28:51 .
Oscar 19 19 Oct 13:25:44 13:30:52 69° 71° (ENE) 13:36:00 437.125/150
EO-79 19 Oct 13:26:18 13:29:05 17° 270° (W) 13:31:54 145.935-145.965
LO-87 19 Oct 13:30:23 13:33:18 23° 295° (WNW) 13:36:13 145.935 - 145.965
POLYITAN 1 19 Oct 13:30:53 13:33:27 15° 271° (W) 13:36:03 437.675
SPROUT 19 Oct 13:38:38 13:42:56 67° 102° (ESE) 13:47:12 437.525
BEESAT 2 19 Oct 13:39:53 13:43:22 29° 118° (ESE) 13:46:54 435.950
Gurwin Techsat 1B 19 Oct 13:45:41 13:50:58 72° 72° (ENE) 13:56:18 435.225
DX 1 19 Oct 13:48:10 13:51:00 17° 90° (E) 13:53:49 434.975-435.025
M-CUBED/EXP-1 PRIME 19 Oct 13:49:13 13:52:28 44° 254° (WSW) 13:55:38 437.505
ISS 19 Oct 13:51:40 13:54:55 63° 352° (N) 13:58:11 437.550
SO-50 19 Oct 13:57:41 14:01:02 20° 25° (NNE) 14:04:25 436.795
ITAMSAT 1 19 Oct 13:58:28 14:01:05 14° 51° (NE) 14:03:42 435.822/435.867
BEESAT 3 19 Oct 13:59:28 14:03:28 69° 312° (NW) 14:07:31 437.485
VELOX 1 19 Oct 14:12:32 14:17:00 84° 285° (WNW) 14:21:27 145.980
AO-85 19 Oct 14:13:38 14:17:16 40° 121° (ESE) 14:21:03 145.980
UKube-1 19 Oct 14:14:55 14:18:07 20° 92° (E) 14:21:17 .
ESTCUBE 1 19 Oct 14:17:55 14:21:03 19° 300° (WNW) 14:24:10 437.505/2401.250
BUGSAT 1 19 Oct 14:19:51 14:22:56 20° 268° (W) 14:26:04 437.445
AO-7 19 Oct 14:30:34 14:38:26 50° 58° (ENE) 14:46:18 .
50 SAT 19 Oct 14:32:40 14:35:55 53° 101° (E) 14:39:09 437.505
PCSat 19 Oct 14:53:46 14:56:43 14° 15° (NNE) 14:59:39 145.827
nSIGHT-1 19 Oct 14:58:55 15:02:06 64° 8° (N) 15:05:17 .
BEESAT 19 Oct 15:07:00 15:07:57 11° 85° (E) 15:08:54 436.000
Oscar 19 19 Oct 15:07:01 15:10:42 19° 270° (W) 15:14:22 437.125/150
SPROUT 19 Oct 15:15:35 15:18:21 17° 301° (WNW) 15:21:07 437.525
BEESAT 2 19 Oct 15:17:08 15:20:59 42° 318° (NW) 15:24:53 435.950
DX 1 19 Oct 15:23:16 15:27:35 62° 289° (WNW) 15:31:54 434.975-435.025
Gurwin Techsat 1B 19 Oct 15:27:45 15:31:29 19° 271° (W) 15:35:13 435.225
ISS 19 Oct 15:28:18 15:31:35 74° 13° (NNE) 15:34:52 437.550
ITAMSAT 1 19 Oct 15:34:30 15:39:40 71° 71° (ENE) 15:44:53 435.822/435.867
SO-50 19 Oct 15:37:43 15:42:18 67° 46° (NE) 15:46:56 436.795
BEESAT 3 19 Oct 15:39:01 15:41:44 17° 333° (NNW) 15:44:27 437.485
UKube-1 19 Oct 15:50:13 15:54:25 51° 290° (WNW) 15:58:36 .
VELOX 1 19 Oct 15:50:43 15:52:45 13° 305° (NW) 15:54:47 145.980
AO-85 19 Oct 15:54:12 15:57:45 31° 323° (NW) 16:01:26 145.980
50 SAT 19 Oct 16:06:16 16:07:51 13° 299° (WNW) 16:09:25 437.505
MOZHAYETS 4 19 Oct 16:08:36 16:13:01 44° 98° (E) 16:17:21
CUBESAT XI-V 19 Oct 16:17:31 16:20:01 14° 87° (E) 16:22:30 437.345
AO-7 19 Oct 16:23:19 16:31:16 48° 259° (W) 16:39:15 .
ITUPSAT 1 19 Oct 16:25:22 16:30:05 53° 101° (E) 16:34:45 437.325
nSIGHT-1 19 Oct 16:35:15 16:38:22 47° 207° (SSW) 16:41:28 .
PCSat 19 Oct 16:36:52 16:41:48 34° 40° (NE) 16:46:43 145.827
BEESAT 19 Oct 16:41:44 16:46:34 76° 105° (ESE) 16:51:20 436.000
DOVE 4 19 Oct 16:53:46 16:57:47 46° 69° (ENE) 17:02:00 437.250
BEESAT 2 19 Oct 16:57:40 16:59:45 13° 340° (NNW) 17:01:50 435.950
ISS 19 Oct 17:04:55 17:07:55 34° 212° (SSW) 17:10:56 437.550
ITAMSAT 1 19 Oct 17:16:03 17:19:41 19° 270° (W) 17:23:19 435.822/435.867
SO-50 19 Oct 17:18:55 17:22:22 21° 246° (WSW) 17:25:52 436.795
XW-2F 19 Oct 17:19:16 17:22:03 20° 64° (ENE) 17:24:51 145.980 - 146.000
KAITUO 1B 19 Oct 17:20:07 17:22:31 17° 62° (ENE) 17:24:55 145.475/437.950
LilacSat-2 19 Oct 17:21:25 17:24:31 24° 65° (ENE) 17:27:36 437.200
XW-2D 19 Oct 17:30:06 17:33:21 27° 67° (ENE) 17:36:36 145.860 - 145.880
CUTE-I 19 Oct 17:34:51 17:39:40 36° 63° (ENE) 17:44:30 437.470
NUDT-PHONESAT 19 Oct 17:35:48 17:38:43 22° 65° (ENE) 17:41:40 437.300
HO-68 19 Oct 17:37:32 17:43:20 28° 52° (NE) 17:49:10 435.675
AO-85 19 Oct 17:37:45 17:39:27 12° 347° (NNW) 17:41:10 145.980
XW-2B 19 Oct 17:43:13 17:46:42 35° 69° (ENE) 17:50:12 145.730 - 145.750
KKS-1 19 Oct 17:45:02 17:48:58 29° 95° (E) 17:52:52 437.445
MOZHAYETS 4 19 Oct 17:46:09 17:49:58 26° 297° (WNW) 17:53:44
CUBESAT XI-V 19 Oct 17:53:21 17:57:57 77° 288° (WNW) 18:02:34 437.345
ITUPSAT 1 19 Oct 18:03:46 18:07:36 24° 300° (WNW) 18:11:25 437.325
XW-2C 19 Oct 18:06:03 18:09:49 64° 74° (ENE) 18:13:36 145.795 - 145.815
PCSat 19 Oct 18:20:11 18:25:31 57° 241° (WSW) 18:30:48 145.827
BEESAT 19 Oct 18:20:35 18:23:48 18° 303° (WNW) 18:26:59 436.000
STARS 19 Oct 18:21:19 18:25:11 29° 95° (E) 18:29:03 437.465
UWE-3 19 Oct 18:23:00 18:25:02 13° 55° (NE) 18:27:04 435.000/436.395/437.385
CUTE 1.7 + AOD 2 19 Oct 18:28:33 18:32:11 29° 66° (ENE) 18:35:50 437.475
DOVE 4 19 Oct 18:32:37 18:35:48 21° 270° (W) 18:39:05 437.250
SEEDS 19 Oct 18:38:22 18:41:42 23° 64° (ENE) 18:45:03 437.485
YUBILEINY 19 Oct 18:39:05 18:44:02 16° 46° (NE) 18:48:58 435.215
XW-2F 19 Oct 18:52:21 18:55:57 40° 262° (W) 18:59:32 145.980 - 146.000
KAITUO 1B 19 Oct 18:52:32 18:56:10 50° 260° (W) 18:59:49 145.475/437.950
LilacSat-2 19 Oct 18:55:08 18:58:39 34° 264° (W) 19:02:10 437.200
BEESAT 3 19 Oct 18:58:05 19:00:09 14° 21° (NNE) 19:02:14 437.485
XW-2D 19 Oct 19:04:09 19:07:29 28° 265° (W) 19:10:48 145.860 - 145.880
AAUSAT CUBESAT 2 19 Oct 19:06:07 19:09:14 21° 63° (ENE) 19:12:21 437.432
NUDT-PHONESAT 19 Oct 19:09:00 19:12:25 34° 263° (W) 19:15:51 437.300
CUTE-I 19 Oct 19:14:42 19:19:40 40° 263° (W) 19:24:42 437.470
CUBEBUG 2 19 Oct 19:15:36 19:20:09 52° 70° (ENE) 19:24:47 437.445
AO-73 19 Oct 19:16:38 19:19:50 19° 60° (ENE) 19:23:03 145.935
XW-2B 19 Oct 19:18:00 19:20:59 22° 267° (W) 19:23:59 145.730 - 145.750
AO-85 19 Oct 19:20:01 19:21:42 12° 12° (NNE) 19:23:26 145.980
KKS-1 19 Oct 19:21:27 19:25:34 37° 294° (WNW) 19:29:41 437.445
HO-68 19 Oct 19:23:13 19:30:24 81° 253° (WSW) 19:37:39 435.675
XW-2A 19 Oct 19:27:07 19:30:20 38° 70° (ENE) 19:33:32 145.665 - 145.685
CUBESAT XI-V 19 Oct 19:32:38 19:34:34 13° 305° (NW) 19:36:30 437.345
ZACube-1 19 Oct 19:36:58 19:40:59 31° 65° (ENE) 19:44:59 437.345
XW-2C 19 Oct 19:42:43 19:44:25 13° 271° (W) 19:46:07 145.795 - 145.815
STRAND 1 19 Oct 19:53:13 19:57:36 27° 93° (E) 20:01:56 437.568
UWE-3 19 Oct 19:56:02 20:00:41 76° 73° (ENE) 20:05:23 435.000/436.395/437.385
STARS 19 Oct 19:57:30 20:01:35 37° 294° (WNW) 20:05:39 437.465
CUTE 1.7 + AOD 2 19 Oct 20:04:06 20:07:56 33° 264° (W) 20:11:48 437.475
SEEDS 19 Oct 20:13:14 20:17:11 41° 262° (W) 20:21:10 437.485
Oscar 11 19 Oct 20:15:40 20:19:45 43° 69° (ENE) 20:23:52 .
BEESAT 2 19 Oct 20:15:41 20:18:33 18° 28° (NNE) 20:21:24 435.950
YUBILEINY 19 Oct 20:34:35 20:43:14 57° 72° (ENE) 20:51:52 435.215
BEESAT 3 19 Oct 20:34:50 20:38:41 44° 43° (NE) 20:42:28 437.485
AAUSAT CUBESAT 2 19 Oct 20:40:29 20:44:25 45° 261° (W) 20:48:23 437.432
DELFI C3 19 Oct 20:44:31 20:47:24 20° 63° (ENE) 20:50:19 145.870
AO-73 19 Oct 20:51:05 20:55:38 64° 259° (W) 21:00:11 145.935
CUBEBUG 2 19 Oct 20:53:23 20:57:02 22° 269° (W) 21:00:47 437.445
AO-85 19 Oct 20:59:40 21:03:28 28° 36° (NE) 21:07:30 145.980
XW-2A 19 Oct 21:00:59 21:03:13 16° 268° (W) 21:05:27 145.665 - 145.685
ZACube-1 19 Oct 21:12:55 21:17:10 37° 264° (W) 21:21:26 437.345
HO-68 19 Oct 21:14:40 21:19:16 18° 274° (W) 21:23:54 435.675
STRAND 1 19 Oct 21:32:02 21:37:01 50° 292° (WNW) 21:41:59 437.568
FO-29 19 Oct 21:34:06 21:40:32 45° 98° (E) 21:47:36 435.910
O/OREOS (USA 219) 19 Oct 21:34:54 21:39:24 61° 112° (ESE) 21:43:57 437.305
UWE-3 19 Oct 21:34:55 21:37:40 15° 273° (W) 21:40:26 435.000/436.395/437.385
EO-88 19 Oct 21:43:31 21:46:59 42° 71° (ENE) 21:50:28 145.990 - 145.960
Max Valier Satellite 19 Oct 21:50:40 21:54:23 70° 75° (ENE) 21:58:07 145.860
Oscar 11 19 Oct 21:52:36 21:56:05 23° 267° (W) 21:59:35 .
BEESAT 2 19 Oct 21:52:52 21:56:57 76° 49° (NE) 22:00:58 435.950
ESTCUBE 1 19 Oct 22:09:28 22:11:57 15° 57° (ENE) 22:14:25 437.505/2401.250
BEESAT 3 19 Oct 22:12:43 22:16:04 26° 243° (WSW) 22:19:21 437.485
DELFI C3 19 Oct 22:18:10 22:21:54 43° 262° (W) 22:25:40 145.870
UNISAT 6 19 Oct 22:20:32 22:24:32 27° 93° (E) 22:28:25 437.425
YUBILEINY 19 Oct 22:31:50 22:39:47 40° 275° (W) 22:47:45 435.215
TIGRISAT 19 Oct 22:35:28 22:39:44 34° 96° (E) 22:43:53 435.000
LO-87 19 Oct 22:36:47 22:39:48 26° 66° (ENE) 22:42:51 145.935 - 145.965
AO-85 19 Oct 22:39:45 22:44:11 63° 235° (SW) 22:48:57 145.980
SPROUT 19 Oct 23:02:48 23:04:43 13° 56° (NE) 23:06:38 437.525
O/OREOS (USA 219) 19 Oct 23:15:34 23:19:13 23° 313° (NW) 23:22:53 437.305
EO-88 19 Oct 23:18:22 23:20:50 17° 269° (W) 23:23:19 145.990 - 145.960
FO-29 19 Oct 23:19:20 23:25:35 46° 295° (WNW) 23:32:31 435.910
Max Valier Satellite 19 Oct 23:27:27 23:28:40 11° 272° (W) 23:29:53 145.860
BEESAT 2 19 Oct 23:31:49 23:34:09 15° 248° (WSW) 23:36:28 435.950
VELOX 1 19 Oct 23:38:48 23:42:00 20° 60° (ENE) 23:45:15 145.980
AIST 2D 19 Oct 23:41:16 23:43:51 19° 92° (E) 23:46:24 435.315
PRISM 19 Oct 23:43:35 23:47:43 76° 104° (ESE) 23:51:50 437.425
ESTCUBE 1 19 Oct 23:43:38 23:48:08 86° 254° (WSW) 23:52:39 437.505/2401.250
QB50P2 19 Oct 23:54:55 23:57:09 14° 88° (E) 23:59:23 145.880/145.840
UNISAT 6 19 Oct 23:56:59 00:01:22 40° 292° (WNW) 00:05:37 437.425
NANOSAT C BR1 19 Oct 23:59:29 00:01:18 12° 87° (E) 00:03:06 145.865
LO-87 20 Oct 00:10:01 00:13:09 27° 265° (W) 00:16:19 145.935 - 145.965
DUCHIFAT 1 20 Oct 00:10:21 00:12:39 14° 88° (E) 00:14:56 145.980
RS-15 20 Oct 00:11:46 00:21:46 31° 103° (ESE) 00:31:43 29.354- 29.394
TIGRISAT 20 Oct 00:12:13 00:16:22 33° 295° (WNW) 00:20:26 435.000
SPROUT 20 Oct 00:35:38 00:39:56 87° 68° (ENE) 00:44:16 437.525
DX 1 20 Oct 00:47:29 00:51:03 26° 63° (ENE) 00:54:39 434.975-435.025
EO-79 20 Oct 01:04:27 01:08:42 59° 101° (E) 01:12:54 145.935-145.965
50 SAT 20 Oct 01:05:13 01:08:13 35° 69° (ENE) 01:11:14 437.505
FO-29 20 Oct 01:07:02 01:09:16 12° 315° (NW) 01:11:33 435.910
POLYITAN 1 20 Oct 01:08:55 01:13:12 66° 102° (ESE) 01:17:25 437.675
UKube-1 20 Oct 01:13:09 01:16:53 30° 65° (ENE) 01:20:39 .
VELOX 1 20 Oct 01:13:48 01:18:06 55° 259° (W) 01:22:27 145.980
AIST 2D 20 Oct 01:13:58 01:17:08 33° 291° (WNW) 01:20:16 435.315
PRISM 20 Oct 01:20:12 01:22:27 14° 302° (WNW) 01:24:42 437.425
ESTCUBE 1 20 Oct 01:24:21 01:25:38 11° 274° (W) 01:26:55 437.505/2401.250
QB50P2 20 Oct 01:29:10 01:33:27 72° 287° (WNW) 01:37:41 145.880/145.840
NANOSAT C BR1 20 Oct 01:33:17 01:37:34 80° 285° (WNW) 01:41:48 145.865
Oscar 19 20 Oct 01:33:52 01:37:08 17° 88° (E) 01:40:24 437.125/150
MOZHAYETS 4 20 Oct 01:40:58 01:42:34 12° 54° (NE) 01:44:10
DUCHIFAT 1 20 Oct 01:44:33 01:48:47 69° 288° (WNW) 01:53:00 145.980
BUGSAT 1 20 Oct 01:55:38 01:59:44 44° 99° (E) 02:03:45 437.445
Gurwin Techsat 1B 20 Oct 01:58:08 02:02:02 20° 90° (E) 02:05:54 435.225
ITUPSAT 1 20 Oct 02:00:40 02:03:44 17° 56° (NE) 02:06:48 437.325
SPROUT 20 Oct 02:15:01 02:16:27 11° 274° (W) 02:17:53 437.525
BEESAT 20 Oct 02:15:58 02:19:39 22° 60° (ENE) 02:23:20 436.000
RS-15 20 Oct 02:20:24 02:32:48 88° 128° (SE) 02:45:05 29.354- 29.394
DX 1 20 Oct 02:23:00 02:27:04 40° 261° (W) 02:31:11 434.975-435.025
50 SAT 20 Oct 02:38:31 02:40:41 16° 267° (W) 02:42:51 437.505
EO-79 20 Oct 02:41:06 02:44:03 18° 300° (WNW) 02:46:58 145.935-145.965
POLYITAN 1 20 Oct 02:45:45 02:48:30 17° 301° (WNW) 02:51:16 437.675
UKube-1 20 Oct 02:48:56 02:52:50 34° 263° (W) 02:56:47 .
M-CUBED/EXP-1 PRIME 20 Oct 02:56:23 02:59:48 49° 107° (ESE) 03:03:24 437.505
QB50P2 20 Oct 03:07:26 03:08:27 11° 306° (NW) 03:09:27 145.880/145.840
NANOSAT C BR1 20 Oct 03:11:03 03:12:33 12° 305° (NW) 03:14:02 145.865
Oscar 19 20 Oct 03:11:55 03:17:04 77° 288° (WNW) 03:22:11 437.125/150
MOZHAYETS 4 20 Oct 03:14:16 03:18:53 70° 73° (ENE) 03:23:31
DUCHIFAT 1 20 Oct 03:23:00 03:23:39 10° 306° (NW) 03:24:18 145.980
CUBESAT XI-V 20 Oct 03:24:30 03:28:12 24° 62° (ENE) 03:31:54 437.345
BUGSAT 1 20 Oct 03:31:30 03:34:50 23° 298° (WNW) 03:38:08 437.445
ITUPSAT 1 20 Oct 03:36:08 03:40:57 82° 255° (WSW) 03:45:49 437.325
Gurwin Techsat 1B 20 Oct 03:37:11 03:42:29 69° 289° (WNW) 03:47:46 435.225
ITAMSAT 1 20 Oct 03:43:48 03:47:19 18° 89° (E) 03:50:48 435.822/435.867
BEESAT 20 Oct 03:52:20 03:57:03 58° 259° (WSW) 04:01:49 436.000
NO-84 20 Oct 03:57:28 04:01:11 28° 135° (SE) 04:04:49 435.350 FM
AO-7 20 Oct 04:19:14 04:27:10 46° 100° (E) 04:35:03 .
M-CUBED/EXP-1 PRIME 20 Oct 04:31:44 04:33:59 17° 303° (WNW) 04:36:19 437.505
RS-15 20 Oct 04:35:01 04:46:49 47° 336° (NNW) 04:58:23 29.354- 29.394
KKS-1 20 Oct 04:46:55 04:51:09 46° 69° (ENE) 04:55:25 437.445
DOVE 4 20 Oct 04:49:31 04:50:53 11° 85° (E) 04:52:14 437.250
Oscar 19 20 Oct 04:52:50 04:55:35 15° 307° (NW) 04:58:20 437.125/150
MOZHAYETS 4 20 Oct 04:53:37 04:56:31 16° 271° (W) 04:59:27
CUBESAT XI-V 20 Oct 05:00:50 05:05:19 48° 261° (W) 05:09:48 437.345
ITUPSAT 1 20 Oct 05:17:51 05:19:33 12° 274° (W) 05:21:15 437.325
Gurwin Techsat 1B 20 Oct 05:18:54 05:21:31 14° 309° (NW) 05:24:06 435.225
STARS 20 Oct 05:21:42 05:25:51 44° 68° (ENE) 05:30:04 437.465
ITAMSAT 1 20 Oct 05:22:06 05:27:22 76° 288° (WNW) 05:32:36 435.822/435.867
NO-84 20 Oct 05:34:04 05:38:22 76° 334° (NNW) 05:42:30 435.350 FM
STRAND 1 20 Oct 05:38:20 05:40:01 12° 50° (NE) 05:41:41 437.568
